Wichita Dwight D. Eisenhower National Airport Airport (ICT)

 

Airport Diagram
Current Weather/Forecast (VFR Conditions)
METAR KICT 272353Z 03007KT 10SM FEW041 SCT065 BKN120 BKN150 BKN180 BKN210 22/14 A2987 RMK AO2 SLP104 T02220144 10239 20222 56005
TAF KICT 272326Z 2800/2824 02007KT P6SM BKN070 BKN120 FM280500 35004KT P6SM VCSH BKN070 BKN120 FM281200 33006KT P6SM VCSH OVC035 FM281600 35011KT P6SM VCSH BKN045 FM282000 01014KT P6SM BKN130

All Charts
General
Chart Name Download
AIRPORT DIAGRAM
TAKEOFF MINIMUMS
ALTERNATE MINIMUMS
HOT SPOT

Approaches
Chart Name Download
ILS OR LOC RWY 01L
ILS OR LOC RWY 01R
ILS OR LOC RWY 19L
ILS OR LOC RWY 19R
ILS RWY 01L (SA CAT I)
ILS RWY 01L (CAT II)
RNAV (RNP) Z RWY 01L
RNAV (RNP) Z RWY 14
RNAV (RNP) Z RWY 19L
RNAV (RNP) Z RWY 19R
RNAV (GPS) RWY 01R
RNAV (GPS) RWY 32
RNAV (GPS) Y RWY 01L
RNAV (GPS) Y RWY 14
RNAV (GPS) Y RWY 19L
RNAV (GPS) Y RWY 19R
VOR RWY 14
NDB RWY 01R


Inbound Traffic (Arrivals)

No inbound traffic.


Outbound Traffic (Departures)

No outbound traffic.